Volver al catálogo

FENGYUN 1C DEB

ActivoPO
NORAD 30926·DEBRIS·🇨🇳 China

Lanzado May 10, 1999 desde Taiyuan Satellite Launch Center

Loading…

Próximos Pases (próximas 24 horas)

TLE

ActualizadoSource: Space-Track

Época: Sep 14, 2026, 09:04 UTC

1 30926U 99025AZQ 26257.37793296  .00001853  00000-0  15067-3 0  9992
2 30926  98.8350 235.3574 0157206 213.6185 145.4981 14.92025571 48742

Sigue FENGYUN 1C DEB en tiempo real con AllMySat

Download on the App Store